Temperature
11 11 11 11 11 11 11 11 11 11 11 11 11 11 11 11 11 11 11 12 12 12 12 12 12 12 11 11 11 11 11 11 11 11 11 11 11 11 11 10 11 11 11
11 11 11 11 11 11 11 11 11 11 11 11 11 11 11 11 11 11 11 11 12 12 12 11 12 11 11 11 11 11 11 11 11 11 11 11 11 10 10 10 10 10 10
10 10 10 11 11 11 11 11 11 11 11 11 11 11 11 11 11 11 11 11 11 11 11 11 11 11 11 11 11 11 11 11 11 11 11 10 10 10 10 10 10 10 10
10 10 10 10 10 10 10 10 10 10 10 10 10 11 11 11 11 11 11 11 11 11 11 11 11 11 11 11 11 11 11 11 11 11 10 10 10 10 10 10 10 10 10
10 10 10 10 10 10 10 10 10 10 10 10 10 10 10 10 10 10 10 10 10 11 11 11 11 11 11 11 11 11 10 11 10 10 10 10 10 10 10 10 10 9 9
9 9 9 9 9 9 9 10 9 10 10 10 10 10 10 10 10 10 10 10 10 10 10 10 10 10 10 10 10 10 10 10 10 10 10 10 10 10 10 10 9 9 9
9 9 9 9 9 9 9 9 9 9 9 9 9 9 9 10 10 10 10 10 10 10 10 10 10 10 10 10 10 10 10 10 10 10 10 10 10 9 9 9 9 9 9
8 8 8 8 8 9 9 9 9 9 9 9 9 9 9 9 9 9 9 10 10 10 10 10 9 9 10 10 10 10 10 10 10 10 10 10 9 9 9 9 9 9 9
7 7 8 8 8 8 8 8 8 8 8 8 8 9 8 9 9 9 9 9 9 9 9 9 9 9 9 9 10 10 10 10 9 9 9 9 9 9 9 9 9 9 9
7 7 7 7 7 7 8 8 8 8 8 8 8 8 9 8 8 8 8 9 9 9 9 9 9 9 9 9 9 9 9 9 9 9 9 9 9 9 9 9 9 8 8
6 6 7 7 7 7 7 7 7 8 8 8 8 8 8 8 8 8 8 8 8 9 9 9 9 9 9 9 9 9 9 9 9 9 9 9 9 9 8 8 8 8 8
5 6 6 6 6 6 7 7 7 7 7 7 7 8 8 8 8 8 8 8 8 8 8 8 9 9 9 9 9 9 9 9 9 9 9 9 9 8 8 8 8 8 8
5 5 5 6 6 6 6 6 6 7 7 7 7 7 7 7 8 8 8 8 7 8 8 8 8 9 9 9 9 9 9 9 9 9 8 8 8 8 8 8 8 8 8
4 4 5 5 5 5 6 6 6 6 6 6 6 6 7 7 7 7 7 7 7 7 7 8 8 8 8 8 8 8 8 8 8 8 8 8 8 8 8 8 7 7 7
3 4 4 4 5 5 5 5 5 5 6 6 6 6 6 6 7 7 7 7 7 7 7 7 8 8 8 8 8 8 8 8 8 8 8 8 8 8 8 7 7 7 7
2 3 3 4 4 4 4 5 5 5 5 5 5 5 6 6 6 6 6 7 7 7 7 7 7 7 7 7 7 8 8 8 8 8 8 8 7 7 7 7 7 7 7
2 2 3 3 3 4 4 4 4 4 4 5 5 5 5 5 6 6 6 6 6 6 6 7 7 7 7 7 7 7 7 7 7 7 7 7 7 7 7 7 7 7 6
1 2 2 2 3 3 3 3 4 4 4 4 4 4 5 5 5 5 5 6 6 6 6 6 6 7 7 7 6 6 6 7 6 6 6 6 7 6 6 6 6 6 6
1 1 1 2 2 2 3 3 3 3 3 3 4 4 4 4 4 5 5 5 5 5 5 5 6 6 6 6 6 6 6 6 6 6 6 6 6 6 6 6 6 5 5
-0 0 1 1 1 2 2 2 2 2 3 3 3 3 3 4 4 4 4 4 5 4 5 5 5 5 5 5 5 5 5 5 5 5 6 6 6 6 6 5 5 5 5
-1 -0 -0 0 1 1 1 1 1 2 2 2 2 3 3 3 3 3 4 4 4 4 4 4 4 4 5 5 5 5 5 5 5 5 5 5 5 5 5 5 5 5 5
-1 -1 -1 -1 -0 0 0 0 1 1 1 2 2 2 2 2 3 3 3 3 3 4 4 4 4 4 4 4 4 4 4 4 4 4 4 5 5 5 5 5 4 4 4
-2 -2 -2 -1 -1 -1 -1 -0 -0 0 1 1 1 1 2 2 2 2 2 2 3 3 3 3 3 4 4 4 4 4 4 4 4 4 4 4 4 4 4 4 4 4 4
-3 -2 -2 -2 -2 -1 -1 -1 -1 -0 -0 0 0 1 1 1 1 1 1 2 2 2 3 3 3 3 3 3 3 3 3 3 3 3 3 3 3 3 3 3 3 3 3
-3 -3 -3 -3 -2 -2 -2 -2 -1 -1 -1 -0 -0 0 0 0 1 1 1 1 1 2 2 2 2 2 2 2 3 3 2 2 2 3 3 2 3 3 3 3 3 3 2
-4 -4 -4 -3 -3 -3 -2 -2 -2 -2 -1 -1 -1 -1 -0 -0 -0 -0 0 0 1 1 1 1 1 2 2 2 2 2 2 2 2 2 2 2 2 2 2 2 2 2 2
Wind_Speed
3 3 3 4 4 5 4 3 2 2 3 4 3 5 4 5 7 9 8 8 7 7 6 6 6 7 7 7 7 7 7 7 7 7 8 8 8 8 8 8 8 8 8
3 3 2 3 3 4 4 3 2 2 3 3 3 4 4 5 7 8 8 7 7 6 5 5 5 5 6 5 6 6 6 6 6 6 7 7 7 7 7 7 7 7 7
3 2 2 2 3 4 4 3 2 3 2 2 2 3 4 5 6 7 7 7 6 6 5 4 4 4 5 5 5 6 6 6 6 6 6 6 5 5 5 5 5 5 6
3 2 2 2 3 4 3 2 2 2 2 2 1 2 2 3 4 5 5 6 6 5 5 5 4 4 4 5 5 6 6 6 6 5 5 5 4 4 4 4 4 4 5
3 2 2 2 4 3 2 2 2 2 2 2 1 1 2 2 2 3 4 4 5 6 6 5 5 4 4 5 6 6 6 5 5 4 4 4 3 3 3 3 4 4 4
2 2 2 3 3 2 2 2 2 2 2 2 2 1 1 1 1 2 2 4 5 5 5 5 5 4 5 5 5 6 6 5 4 4 3 3 3 3 3 3 3 3 3
2 2 2 3 3 3 3 3 2 3 2 2 2 1 1 0 1 1 2 3 3 4 5 5 5 5 5 6 6 6 6 6 4 4 4 4 4 4 3 3 3 2 2
2 3 2 3 3 3 4 4 3 3 2 3 3 2 1 0 1 1 1 2 2 4 4 5 5 5 5 6 6 7 7 7 6 4 4 5 4 4 4 4 3 3 2
2 2 2 3 3 3 4 4 5 4 4 3 3 2 2 2 1 1 2 2 2 2 3 4 5 5 5 6 6 7 8 7 7 5 5 5 5 5 4 4 4 4 3
2 2 2 3 3 3 3 4 4 4 5 5 3 2 2 2 2 1 2 2 3 3 3 4 5 5 5 6 6 6 7 8 8 7 6 6 5 5 5 4 4 4 4
2 2 2 3 4 3 4 4 3 4 4 4 4 3 2 1 2 2 2 3 2 3 3 3 5 6 6 6 6 6 7 7 8 8 7 7 7 6 6 5 5 4 4
1 2 2 2 3 3 4 4 4 5 4 4 3 3 3 3 3 2 2 3 3 3 3 3 4 6 8 8 7 8 7 7 7 8 8 8 8 7 6 5 5 5 5
1 2 2 2 3 3 3 4 4 5 5 5 5 4 3 3 2 2 1 2 2 2 2 3 4 7 8 8 8 8 8 8 8 8 8 9 8 7 6 6 6 6 6
2 2 3 2 3 3 3 3 3 5 5 5 6 5 3 3 2 2 2 2 2 2 2 4 3 6 7 7 8 8 7 8 8 8 7 8 7 7 7 7 7 7 6
2 2 3 2 2 2 3 3 3 4 5 5 5 5 4 4 3 3 2 3 3 3 4 4 2 3 6 7 7 7 7 8 9 9 8 8 8 8 8 7 7 7 7
2 2 3 2 2 2 2 2 2 3 4 4 4 5 5 4 3 3 3 3 3 3 3 2 2 2 4 5 7 7 7 7 9 9 9 8 8 8 8 8 8 8 8
2 2 2 2 2 2 2 2 3 3 4 4 4 5 5 4 3 3 3 3 3 3 4 2 1 2 2 3 3 5 6 7 7 9 9 9 9 9 9 9 9 9 9
2 2 3 3 2 2 2 3 3 3 3 5 5 5 5 4 4 4 4 4 4 3 3 4 2 2 3 3 3 3 3 4 5 8 9 9 9 10 10 10 9 9 9
3 2 2 3 3 2 3 3 4 4 4 5 5 5 5 5 5 4 4 5 4 3 3 4 3 2 2 2 2 2 2 2 4 6 8 9 10 10 10 10 10 10 10
3 3 3 3 3 3 3 4 4 4 4 5 5 5 5 5 6 5 5 5 4 4 3 4 3 3 3 2 3 3 2 2 2 4 5 6 8 9 10 11 11 11 10
4 3 3 3 3 3 3 3 4 4 4 5 5 5 5 5 6 5 5 5 5 4 4 4 4 3 3 3 4 4 3 2 2 2 2 4 5 6 7 9 10 10 10
4 3 4 4 4 4 5 6 5 4 4 4 5 5 5 5 6 7 7 7 7 7 6 5 5 5 6 5 4 4 3 3 3 3 2 3 4 4 6 7 9 10 10
4 3 4 4 4 4 6 7 7 5 4 5 5 4 5 4 4 4 6 7 7 8 9 8 7 7 7 6 6 5 5 4 4 3 3 4 3 4 5 7 8 9 10
4 3 4 4 4 5 7 7 7 5 4 5 5 5 5 5 5 5 5 5 5 6 6 6 6 7 6 6 7 6 5 3 1 1 3 3 3 3 3 6 9 9 9
4 4 4 4 4 5 8 8 6 4 4 4 5 5 5 5 7 7 5 5 5 5 5 6 6 5 6 6 5 3 4 4 3 3 2 2 2 2 2 3 7 9 9
5 5 5 4 4 5 7 8 7 3 3 4 4 4 7 7 7 7 5 5 6 5 3 3 4 4 3 4 6 6 6 6 3 3 3 3 2 1 2 2 3 5 6
Wind_Direction
124 123 133 138 136 139 133 137 146 130 106 117 133 110 99 94 101 105 108 109 109 112 114 116 114 119 121 116 112 110 108 103 104 106 105 100 98 93 89 85 83 81 76
111 130 133 137 139 143 146 154 138 106 96 98 101 109 109 102 103 109 114 114 116 116 115 123 124 123 124 127 125 123 121 115 110 111 110 107 103 99 94 89 87 85 79
125 119 141 149 139 151 148 140 125 107 100 95 90 92 94 104 113 119 126 128 124 120 120 128 135 141 139 136 132 127 123 118 114 115 113 114 114 108 103 95 92 90 84
156 136 152 160 144 142 131 134 130 122 117 107 96 81 84 96 104 123 130 136 137 134 132 133 136 143 150 148 146 139 133 128 124 122 121 120 118 116 108 98 95 92 88
173 151 164 157 152 140 137 160 147 145 134 117 106 90 76 85 113 124 124 130 134 137 142 151 154 157 162 161 157 153 147 143 137 135 141 139 134 131 124 117 108 95 89
197 176 161 160 156 159 165 166 152 133 133 131 105 75 78 113 129 135 140 132 137 147 152 158 159 165 173 174 171 171 164 161 163 160 165 169 166 161 146 137 132 119 109
223 206 186 180 177 182 184 178 157 144 142 123 100 79 24 303 159 147 142 140 148 154 154 163 168 169 175 183 182 180 179 179 182 187 192 191 184 179 172 158 154 156 136
264 215 198 195 197 187 185 177 165 165 171 155 143 136 153 243 278 208 178 168 168 163 166 176 173 174 174 177 187 190 191 191 193 199 201 191 191 195 186 180 178 181 163
277 242 219 211 208 198 194 187 179 179 183 189 176 162 162 199 206 228 214 197 188 178 181 182 182 186 184 177 181 191 196 197 202 209 212 204 203 198 185 176 182 186 171
289 276 229 219 210 205 202 203 191 185 180 187 202 213 189 156 168 203 233 219 206 203 199 199 194 192 195 190 188 195 201 203 207 212 217 219 213 204 190 183 182 180 173
296 283 261 227 213 208 206 204 205 196 191 194 198 201 209 203 199 184 219 215 222 223 206 206 199 195 200 195 192 195 201 207 212 217 222 224 220 211 201 194 191 190 192
294 296 283 263 239 218 211 207 208 209 208 206 209 201 193 191 199 196 210 206 218 231 218 210 210 205 204 200 204 202 206 213 218 223 227 227 221 211 207 206 204 206 207
301 284 277 270 266 247 227 218 213 210 208 208 212 217 214 209 201 204 196 212 229 246 225 226 217 207 206 202 203 207 209 214 220 227 234 229 219 212 210 210 210 212 214
283 305 287 275 272 265 245 227 226 223 213 213 217 213 215 219 209 206 192 187 212 243 233 230 223 203 197 196 199 205 210 216 219 224 229 223 213 208 208 209 210 212 215
299 308 301 286 272 263 250 226 232 235 224 220 217 212 213 218 211 205 193 184 188 219 234 225 218 201 186 187 198 197 205 217 219 220 220 214 207 207 206 206 209 211 213
306 300 294 294 296 274 262 239 237 247 230 228 225 214 215 216 209 200 199 208 204 209 231 224 227 209 180 188 202 198 204 213 216 214 211 208 205 210 209 210 209 212 217
298 281 285 278 279 283 267 246 239 253 238 235 234 224 225 219 211 208 205 210 216 210 233 251 249 204 186 185 195 199 208 206 208 208 205 204 206 209 212 215 215 217 221
296 286 290 273 259 269 261 242 238 243 245 240 238 231 231 227 218 213 211 216 222 215 219 230 234 217 209 189 181 187 203 204 203 208 209 209 210 214 215 216 217 218 221
290 288 284 270 260 258 260 255 243 237 244 250 241 233 233 226 227 225 219 218 222 225 225 219 225 220 216 195 180 191 192 201 210 210 211 214 216 218 219 220 221 222 225
288 276 275 275 264 266 267 264 257 246 244 254 251 239 236 230 227 228 227 222 219 217 214 213 217 207 204 197 180 190 206 216 230 215 215 217 219 220 222 224 225 227 227
296 283 276 276 266 264 271 272 265 257 250 257 256 241 234 242 248 238 237 224 216 217 212 216 210 211 206 193 201 193 208 208 239 218 223 221 216 214 220 223 223 224 224
302 297 287 286 273 271 282 284 280 261 256 255 263 256 243 240 253 254 251 243 229 218 217 222 219 214 212 211 202 201 196 200 229 209 210 239 208 218 216 220 225 221 218
304 305 299 286 283 280 288 288 282 272 260 254 255 257 255 252 256 256 257 252 245 239 228 220 220 219 213 209 198 201 209 210 228 209 199 236 221 223 218 219 223 222 217
299 294 290 283 277 283 286 287 287 271 257 255 254 252 250 246 250 254 251 247 244 243 240 231 227 229 223 207 201 206 206 204 268 214 182 226 229 233 227 221 222 218 220
300 292 288 286 281 284 288 284 282 261 260 261 259 256 251 244 252 254 246 247 252 254 260 252 250 251 244 224 206 188 186 192 238 232 197 201 225 248 238 223 219 218 225
299 301 298 293 286 286 290 289 285 260 263 270 270 261 256 253 255 253 238 231 242 251 253 263 252 245 237 215 201 198 199 205 214 226 200 187 203 199 257 244 214 216 228
Height
1544 1545 1547 1548 1550 1552 1553 1555 1557 1558 1559 1561 1562 1563 1564 1565 1566 1566 1567 1568 1569 1570 1571 1571 1571 1572 1573 1573 1574 1574 1575 1575 1576 1576 1576 1577 1577 1577 1577 1577 1578 1578 1578
1542 1544 1545 1547 1549 1550 1552 1554 1556 1557 1558 1560 1561 1562 1563 1564 1565 1566 1566 1567 1568 1569 1570 1570 1571 1572 1572 1573 1573 1574 1575 1575 1575 1576 1576 1576 1577 1577 1577 1577 1578 1578 1578
1540 1542 1543 1545 1547 1549 1551 1552 1554 1555 1557 1558 1560 1561 1562 1563 1564 1565 1565 1566 1567 1568 1569 1569 1570 1571 1572 1572 1573 1573 1574 1574 1575 1575 1576 1576 1576 1577 1577 1577 1577 1577 1577
1538 1539 1541 1543 1545 1546 1548 1550 1552 1553 1555 1556 1558 1559 1561 1562 1563 1564 1564 1565 1566 1566 1567 1568 1569 1570 1571 1571 1572 1572 1573 1574 1574 1575 1575 1575 1576 1576 1576 1577 1577 1577 1577
1534 1536 1538 1540 1542 1544 1545 1547 1549 1551 1552 1554 1556 1557 1559 1560 1561 1562 1563 1564 1564 1565 1566 1567 1568 1568 1569 1570 1571 1571 1572 1572 1573 1573 1574 1574 1575 1575 1575 1576 1576 1576 1576
1531 1533 1535 1537 1539 1541 1543 1544 1546 1549 1550 1552 1553 1555 1557 1558 1559 1560 1561 1562 1563 1564 1564 1565 1566 1567 1568 1568 1569 1570 1570 1571 1571 1572 1573 1573 1573 1574 1574 1574 1574 1575 1575
1528 1529 1531 1534 1536 1538 1539 1542 1543 1546 1548 1549 1551 1553 1555 1556 1557 1558 1559 1560 1561 1562 1562 1563 1564 1565 1565 1566 1567 1568 1569 1569 1570 1571 1571 1572 1572 1572 1572 1573 1573 1573 1573
1524 1526 1528 1530 1532 1534 1536 1538 1540 1542 1544 1546 1548 1550 1552 1554 1554 1555 1556 1557 1558 1559 1560 1561 1561 1562 1563 1564 1565 1566 1567 1567 1568 1569 1569 1570 1570 1571 1571 1571 1571 1571 1571
1520 1522 1524 1526 1528 1530 1532 1534 1537 1539 1540 1543 1545 1547 1549 1549 1551 1552 1553 1555 1556 1556 1557 1558 1559 1560 1561 1562 1562 1563 1564 1565 1566 1566 1567 1567 1568 1568 1569 1569 1569 1569 1569
1516 1518 1520 1522 1524 1526 1528 1531 1533 1535 1537 1538 1541 1544 1546 1546 1548 1548 1550 1552 1553 1553 1554 1555 1556 1557 1558 1559 1560 1560 1561 1562 1563 1564 1564 1565 1565 1566 1566 1566 1567 1567 1567
1512 1514 1516 1518 1520 1522 1524 1526 1528 1531 1533 1535 1537 1539 1541 1543 1544 1545 1546 1547 1549 1550 1551 1552 1553 1554 1555 1555 1556 1557 1558 1559 1560 1561 1561 1562 1562 1563 1564 1564 1564 1564 1564
1508 1509 1511 1513 1515 1517 1519 1522 1524 1526 1529 1531 1533 1535 1537 1539 1540 1541 1542 1543 1544 1546 1547 1548 1549 1550 1551 1552 1553 1554 1555 1556 1557 1557 1558 1559 1559 1560 1561 1561 1561 1561 1562
1503 1505 1507 1508 1510 1512 1514 1517 1519 1521 1524 1526 1529 1531 1532 1534 1536 1538 1539 1540 1541 1542 1543 1544 1545 1546 1547 1548 1549 1550 1551 1552 1553 1554 1555 1555 1556 1556 1557 1558 1558 1558 1558
1499 1501 1502 1504 1506 1508 1509 1511 1514 1516 1519 1521 1524 1526 1528 1530 1532 1534 1535 1536 1537 1538 1538 1539 1541 1542 1543 1544 1545 1546 1547 1548 1549 1549 1550 1551 1552 1552 1553 1554 1554 1554 1555
1495 1497 1498 1499 1501 1503 1505 1507 1508 1511 1513 1516 1518 1520 1522 1525 1527 1529 1531 1532 1533 1533 1533 1535 1536 1537 1538 1540 1541 1542 1542 1543 1544 1545 1546 1547 1548 1548 1549 1550 1550 1550 1551
1491 1492 1493 1494 1496 1498 1499 1501 1503 1506 1508 1510 1512 1515 1517 1519 1521 1523 1525 1527 1528 1529 1529 1529 1531 1532 1534 1535 1536 1537 1538 1539 1540 1541 1541 1542 1543 1544 1545 1545 1545 1546 1547
1487 1488 1489 1490 1491 1493 1495 1496 1499 1500 1502 1504 1506 1509 1511 1513 1515 1517 1519 1521 1523 1524 1524 1524 1526 1528 1529 1530 1531 1532 1533 1534 1534 1536 1537 1538 1538 1539 1540 1540 1541 1541 1542
1483 1484 1485 1486 1487 1488 1490 1492 1493 1495 1497 1499 1500 1503 1505 1507 1509 1511 1513 1515 1516 1518 1519 1519 1520 1522 1523 1524 1525 1527 1528 1528 1530 1531 1532 1533 1533 1534 1535 1535 1536 1536 1537
1479 1480 1481 1481 1482 1483 1485 1487 1488 1489 1491 1493 1495 1497 1499 1501 1503 1505 1507 1509 1510 1512 1513 1514 1514 1516 1518 1519 1520 1521 1523 1523 1524 1526 1527 1528 1528 1529 1530 1530 1531 1531 1532
1475 1476 1476 1477 1478 1479 1481 1482 1483 1485 1487 1488 1489 1491 1493 1495 1496 1498 1500 1502 1504 1506 1507 1508 1509 1510 1512 1513 1514 1516 1517 1518 1519 1520 1521 1522 1523 1524 1524 1525 1526 1526 1526
1472 1472 1473 1473 1474 1475 1476 1478 1479 1480 1482 1483 1484 1485 1487 1489 1491 1493 1494 1496 1498 1499 1501 1502 1503 1504 1505 1507 1509 1510 1511 1512 1514 1515 1516 1516 1517 1518 1518 1519 1520 1520 1521
1468 1468 1468 1469 1469 1470 1472 1473 1475 1476 1477 1478 1478 1480 1482 1484 1485 1487 1489 1490 1492 1493 1494 1496 1497 1498 1499 1501 1503 1504 1505 1506 1507 1509 1510 1511 1511 1511 1512 1513 1514 1515 1516
1464 1463 1464 1464 1465 1465 1467 1469 1470 1471 1472 1472 1473 1474 1476 1478 1480 1482 1483 1484 1486 1487 1489 1490 1491 1491 1493 1495 1497 1498 1499 1500 1501 1503 1504 1504 1505 1506 1507 1507 1508 1509 1510
1460 1460 1460 1460 1461 1461 1463 1464 1465 1466 1467 1468 1468 1470 1471 1472 1474 1476 1477 1478 1479 1480 1482 1484 1485 1487 1489 1490 1492 1493 1494 1495 1496 1498 1499 1499 1499 1500 1501 1502 1503 1503 1504
1456 1456 1456 1456 1456 1457 1458 1459 1460 1461 1461 1462 1463 1464 1465 1467 1469 1470 1471 1471 1473 1474 1476 1478 1479 1481 1483 1484 1486 1488 1488 1489 1489 1491 1493 1494 1494 1494 1495 1496 1497 1498 1498
1453 1452 1452 1452 1452 1452 1453 1454 1455 1455 1456 1456 1457 1459 1460 1461 1462 1464 1465 1465 1466 1468 1470 1471 1473 1474 1476 1478 1479 1481 1482 1483 1484 1484 1486 1488 1488 1489 1489 1490 1491 1492 1492